contact:dominique.lefevre@mio.osupytheas.fr, maurice.libes@osupytheas.fr, didier.mallarino@osupytheas.fr
Project:EMSO http://www.emso-fr.org/EMSO-France
Depth: 2436.0 m
Title:EMSO Ligure Ouest : Data MII capteur AQUADOPP
Date,Latitude,Longitude,X_East,Y_North,Z_Up,Amplitude_X,Amplitude_Y,Amplitude_Z,Batterie,SoundSpeed,Heading,Pitch,Roll,Pressure,TIS,Speed,Direction
, degrees North, degrees East, m.s-1, m.s-1,m.s-1, 1, 1, 1, Volt, m.s-1, degree, degree, degree, dbar, degree_C, m.s-1, degree
2022-03-08T00:04:03,42.805,6.029,0.043,-0.012,0.03,102.0,102.0,101.0,13.4,1505.2,326.3,-0.7,1.8,2470.802,13.28,0.044,105.6
2022-03-08T00:07:03,42.805,6.029,0.033,-0.023,0.001,102.0,102.0,100.0,13.4,1505.2,327.2,-0.8,1.8,2470.811,13.28,0.04,124.9
2022-03-08T00:10:03,42.805,6.029,0.011,-0.023,0.005,103.0,103.0,100.0,13.4,1505.2,325.1,-0.8,1.9,2470.8,13.28,0.025,154.4
2022-03-08T00:13:03,42.805,6.029,0.019,-0.022,0.002,101.0,102.0,101.0,13.4,1505.2,326.3,-0.8,1.8,2470.796,13.28,0.029,139.2
2022-03-08T00:16:03,42.805,6.029,0.011,0.005,0.004,103.0,101.0,101.0,13.4,1505.2,329.3,-0.8,1.8,2470.799,13.28,0.012,65.6
2022-03-08T00:19:03,42.805,6.029,0.014,-0.006,-0.022,103.0,103.0,101.0,13.4,1505.2,328.6,-0.8,1.8,2470.753,13.28,0.015,113.2
2022-03-08T00:22:03,42.805,6.029,0.01,0.0,0.032,102.0,102.0,101.0,13.3,1505.2,331.3,-0.8,1.8,2470.803,13.28,0.01,90.0
2022-03-08T00:25:03,42.805,6.029,0.028,0.009,-0.002,102.0,102.0,101.0,13.4,1505.2,323.5,-0.8,1.9,2470.774,13.28,0.029,72.2
2022-03-08T00:28:03,42.805,6.029,0.024,-0.013,-0.021,102.0,102.0,101.0,13.4,1505.2,323.7,-0.7,1.8,2470.792,13.28,0.027,118.4
2022-03-08T00:31:03,42.805,6.029,0.027,-0.014,-0.013,101.0,102.0,101.0,13.4,1505.2,329.1,-0.7,1.8,2470.746,13.28,0.03,117.4
2022-03-08T00:34:03,42.805,6.029,0.021,-0.001,0.02,102.0,102.0,101.0,13.4,1505.2,327.9,-0.7,1.9,2470.771,13.28,0.021,92.7
2022-03-08T00:37:03,42.805,6.029,0.018,-0.012,0.0,102.0,103.0,101.0,13.4,1505.2,323.9,-0.8,1.8,2470.787,13.28,0.021,123.7
2022-03-08T00:40:03,42.805,6.029,-0.002,-0.007,-0.041,103.0,103.0,100.0,13.4,1505.2,325.8,-0.8,1.8,2470.761,13.28,0.007,195.9
2022-03-08T00:43:03,42.805,6.029,0.013,0.005,0.009,103.0,102.0,101.0,13.4,1505.2,327.3,-0.7,1.8,2470.756,13.28,0.013,69.0
2022-03-08T00:46:03,42.805,6.029,0.013,-0.007,0.008,102.0,101.0,100.0,13.3,1505.2,331.3,-0.8,1.8,2470.776,13.28,0.014,118.3
2022-03-08T00:49:03,42.805,6.029,0.011,0.0,-0.015,102.0,102.0,101.0,13.4,1505.2,331.3,-0.8,1.8,2470.795,13.28,0.011,90.0
2022-03-08T00:52:03,42.805,6.029,0.021,-0.013,-0.006,103.0,102.0,101.0,13.4,1505.2,328.5,-0.7,1.8,2470.735,13.28,0.024,121.8
2022-03-08T00:55:03,42.805,6.029,0.001,-0.011,-0.003,102.0,102.0,102.0,13.3,1505.2,323.8,-0.7,1.8,2470.772,13.28,0.011,174.8
2022-03-08T00:58:03,42.805,6.029,0.019,-0.004,-0.03,102.0,102.0,102.0,13.4,1505.2,331.4,-0.8,1.8,2470.775,13.28,0.019,101.9
2022-03-08T01:04:03,42.805,6.029,0.017,-0.023,-0.028,103.0,103.0,102.0,13.3,1505.2,331.1,-0.7,1.8,2470.768,13.28,0.028,143.5
2022-03-08T01:07:03,42.805,6.029,0.026,-0.006,0.0,103.0,104.0,102.0,13.3,1505.2,329.0,-0.8,1.8,2470.806,13.28,0.026,103.0
2022-03-08T01:10:03,42.805,6.029,0.018,0.005,0.028,102.0,102.0,102.0,13.4,1505.2,324.6,-0.8,1.8,2470.755,13.28,0.018,74.5
2022-03-08T01:13:03,42.805,6.029,0.015,-0.013,-0.025,102.0,101.0,101.0,13.3,1505.2,331.0,-0.7,1.8,2470.78,13.28,0.019,130.9
2022-03-08T01:16:03,42.805,6.029,0.038,-0.024,0.0,102.0,102.0,101.0,13.4,1505.2,328.9,-0.7,1.8,2470.737,13.28,0.044,122.3
2022-03-08T01:19:03,42.805,6.029,0.016,-0.007,-0.013,102.0,103.0,101.0,13.4,1505.2,332.6,-0.8,1.8,2470.78,13.28,0.017,113.6
2022-03-08T01:22:03,42.805,6.029,0.019,-0.019,0.014,102.0,101.0,101.0,13.4,1505.2,324.5,-0.8,1.8,2470.792,13.28,0.026,135.0
2022-03-08T01:25:03,42.805,6.029,0.017,-0.01,-0.021,101.0,103.0,101.0,13.3,1505.2,328.6,-0.8,1.8,2470.769,13.28,0.019,120.5
2022-03-08T01:28:03,42.805,6.029,0.016,-0.009,0.002,102.0,103.0,101.0,13.4,1505.2,330.2,-0.8,1.8,2470.722,13.28,0.018,119.4
2022-03-08T01:31:03,42.805,6.029,0.026,0.0,0.004,102.0,103.0,101.0,13.4,1505.2,325.1,-0.7,1.8,2470.722,13.28,0.026,90.0
2022-03-08T01:34:03,42.805,6.029,0.01,-0.002,-0.006,103.0,102.0,102.0,13.4,1505.2,325.8,-0.7,1.9,2470.75,13.28,0.01,101.3
2022-03-08T01:37:03,42.805,6.029,0.005,-0.007,-0.015,103.0,103.0,101.0,13.4,1505.2,323.9,-0.8,1.8,2470.734,13.28,0.008,144.5
2022-03-08T01:40:03,42.805,6.029,0.009,-0.002,0.003,104.0,103.0,101.0,13.4,1505.2,323.9,-0.8,1.8,2470.746,13.28,0.009,102.5
2022-03-08T01:43:03,42.805,6.029,0.008,0.006,0.003,103.0,103.0,101.0,13.4,1505.2,324.3,-0.7,1.9,2470.765,13.28,0.01,53.1
2022-03-08T01:46:03,42.805,6.029,0.008,-0.012,-0.02,102.0,102.0,102.0,13.3,1505.2,325.1,-0.8,1.8,2470.725,13.28,0.014,146.3
2022-03-08T01:49:03,42.805,6.029,0.023,0.009,0.0,103.0,103.0,101.0,13.4,1505.2,326.3,-0.7,1.8,2470.761,13.28,0.024,68.6
2022-03-08T01:52:03,42.805,6.029,0.007,-0.012,0.009,103.0,103.0,101.0,13.3,1505.2,326.5,-0.8,1.8,2470.736,13.28,0.013,149.7
2022-03-08T01:55:03,42.805,6.029,0.024,-0.013,-0.022,100.0,101.0,102.0,13.3,1505.2,328.9,-0.7,1.8,2470.736,13.28,0.027,118.4
2022-03-08T01:58:03,42.805,6.029,0.022,-0.011,-0.005,101.0,102.0,101.0,13.4,1505.2,331.2,-0.7,1.8,2470.735,13.28,0.024,116.6
2022-03-08T02:04:03,42.805,6.029,0.013,-0.014,0.013,103.0,102.0,101.0,13.4,1505.2,331.0,-0.7,1.8,2470.765,13.28,0.019,137.1
2022-03-08T02:07:03,42.805,6.029,0.02,0.0,0.003,102.0,103.0,101.0,13.4,1505.2,328.9,-0.8,1.8,2470.709,13.28,0.02,90.0
2022-03-08T02:10:03,42.805,6.029,0.019,0.002,0.007,103.0,103.0,101.0,13.3,1505.2,325.0,-0.8,1.8,2470.738,13.28,0.019,84.0
2022-03-08T02:13:03,42.805,6.029,0.031,-0.005,-0.009,102.0,101.0,101.0,13.4,1505.2,329.0,-0.7,1.8,2470.737,13.28,0.031,99.2
2022-03-08T02:16:03,42.805,6.029,0.005,-0.011,-0.008,104.0,102.0,101.0,13.4,1505.2,328.6,-0.8,1.8,2470.749,13.28,0.012,155.6
2022-03-08T02:19:03,42.805,6.029,0.027,-0.016,-0.006,103.0,102.0,101.0,13.3,1505.2,328.1,-0.8,1.8,2470.737,13.28,0.031,120.7
2022-03-08T02:22:03,42.805,6.029,0.026,0.0,0.025,103.0,103.0,101.0,13.4,1505.2,327.8,-0.8,1.8,2470.752,13.28,0.026,90.0
2022-03-08T02:25:03,42.805,6.029,0.026,-0.022,-0.025,102.0,101.0,101.0,13.4,1505.2,328.2,-0.7,1.8,2470.75,13.28,0.034,130.2
2022-03-08T02:28:03,42.805,6.029,0.015,-0.014,-0.03,102.0,103.0,100.0,13.4,1505.2,322.9,-0.7,1.8,2470.72,13.28,0.02,133.0
2022-03-08T02:31:03,42.805,6.029,0.033,-0.025,-0.021,101.0,102.0,101.0,13.3,1505.2,331.2,-0.7,1.8,2470.756,13.28,0.041,127.1
2022-03-08T02:34:03,42.805,6.029,0.019,0.0,0.008,102.0,102.0,101.0,13.3,1505.2,325.5,-0.8,1.8,2470.703,13.28,0.019,90.0
2022-03-08T02:37:03,42.805,6.029,0.005,-0.003,-0.027,103.0,103.0,100.0,13.4,1505.2,328.5,-0.8,1.8,2470.711,13.28,0.005,121.0
2022-03-08T02:40:03,42.805,6.029,0.027,-0.005,-0.005,103.0,103.0,102.0,13.4,1505.2,329.9,-0.8,1.8,2470.729,13.28,0.027,100.5
2022-03-08T02:43:03,42.805,6.029,0.007,-0.021,-0.013,102.0,103.0,101.0,13.4,1505.2,326.7,-0.7,1.8,2470.744,13.28,0.022,161.6
2022-03-08T02:46:03,42.805,6.029,0.015,0.008,0.037,102.0,102.0,102.0,13.4,1505.2,331.1,-0.8,1.8,2470.729,13.28,0.017,61.9
2022-03-08T02:49:03,42.805,6.029,0.032,0.006,0.02,103.0,102.0,101.0,13.4,1505.2,327.0,-0.8,1.9,2470.739,13.28,0.032,79.4
2022-03-08T02:52:03,42.805,6.029,0.039,-0.017,-0.019,103.0,102.0,101.0,13.4,1505.2,325.7,-0.8,1.8,2470.735,13.28,0.042,113.5
2022-03-08T02:55:03,42.805,6.029,0.01,0.004,0.002,102.0,102.0,101.0,13.4,1505.2,326.8,-0.8,1.8,2470.682,13.28,0.01,68.2
2022-03-08T02:58:03,42.805,6.029,0.034,-0.01,-0.003,102.0,103.0,101.0,13.3,1505.2,329.8,-0.7,1.8,2470.683,13.28,0.035,106.4
2022-03-08T03:04:03,42.805,6.029,0.02,-0.003,-0.008,102.0,103.0,101.0,13.4,1505.2,330.0,-0.8,1.8,2470.75,13.28,0.02,98.5
2022-03-08T03:07:03,42.805,6.029,0.012,-0.023,-0.034,102.0,102.0,102.0,13.4,1505.2,326.9,-0.7,1.8,2470.778,13.28,0.025,152.4
2022-03-08T03:10:03,42.805,6.029,0.038,-0.008,-0.021,103.0,103.0,101.0,13.4,1505.2,323.4,-0.7,1.8,2470.737,13.28,0.038,101.9
2022-03-08T03:13:03,42.805,6.029,0.035,0.004,0.035,102.0,103.0,100.0,13.3,1505.2,325.3,-0.8,1.8,2470.699,13.28,0.035,83.5
2022-03-08T03:16:03,42.805,6.029,0.012,-0.011,0.019,104.0,103.0,101.0,13.4,1505.2,330.7,-0.8,1.8,2470.722,13.28,0.016,132.5
2022-03-08T03:19:03,42.805,6.029,0.042,-0.006,0.001,102.0,102.0,102.0,13.3,1505.2,330.0,-0.7,1.8,2470.707,13.28,0.042,98.1
2022-03-08T03:22:03,42.805,6.029,0.017,0.0,0.003,101.0,103.0,101.0,13.4,1505.2,326.1,-0.8,1.8,2470.75,13.28,0.017,90.0
2022-03-08T03:25:03,42.805,6.029,0.058,-0.047,-0.013,102.0,102.0,102.0,13.4,1505.2,327.1,-0.7,1.8,2470.697,13.28,0.074,129.0
2022-03-08T03:28:03,42.805,6.029,0.031,-0.002,0.005,102.0,104.0,101.0,13.4,1505.2,324.9,-0.8,1.8,2470.71,13.28,0.031,93.7
2022-03-08T03:31:03,42.805,6.029,0.02,-0.015,-0.004,103.0,103.0,101.0,13.4,1505.2,327.8,-0.7,1.8,2470.732,13.28,0.025,126.9
2022-03-08T03:34:03,42.805,6.029,0.025,-0.024,-0.016,101.0,104.0,102.0,13.4,1505.2,328.3,-0.8,1.8,2470.686,13.28,0.034,133.8
2022-03-08T03:37:03,42.805,6.029,0.028,-0.004,0.003,103.0,103.0,101.0,13.3,1505.2,328.8,-0.8,1.8,2470.732,13.28,0.028,98.1
2022-03-08T03:40:03,42.805,6.029,0.03,0.004,0.013,102.0,103.0,101.0,13.4,1505.2,332.3,-0.8,1.8,2470.724,13.28,0.03,82.4
2022-03-08T03:43:03,42.805,6.029,0.058,-0.016,0.017,103.0,102.0,101.0,13.4,1505.2,329.5,-0.7,1.8,2470.669,13.28,0.06,105.4
2022-03-08T03:46:03,42.805,6.029,0.037,0.004,0.003,102.0,104.0,102.0,13.3,1505.2,325.1,-0.8,1.8,2470.703,13.28,0.037,83.8
2022-03-08T03:49:03,42.805,6.029,0.019,-0.013,0.012,102.0,103.0,102.0,13.3,1505.2,323.7,-0.7,1.8,2470.707,13.28,0.023,124.4
2022-03-08T03:52:03,42.805,6.029,0.014,0.016,-0.001,103.0,103.0,101.0,13.3,1505.2,325.5,-0.8,1.8,2470.703,13.28,0.021,41.2
2022-03-08T03:55:03,42.805,6.029,0.017,0.005,0.017,103.0,104.0,101.0,13.4,1505.2,324.9,-0.7,1.8,2470.672,13.28,0.017,73.6
2022-03-08T03:58:03,42.805,6.029,0.03,-0.012,-0.007,102.0,103.0,101.0,13.4,1505.2,328.1,-0.8,1.8,2470.714,13.28,0.032,111.8
2022-03-08T04:04:03,42.805,6.029,0.031,0.0,-0.016,103.0,104.0,101.0,13.3,1505.2,326.2,-0.7,1.8,2470.74,13.28,0.03,90.0
2022-03-08T04:07:03,42.805,6.029,0.028,-0.011,0.008,102.0,104.0,102.0,13.3,1505.2,324.7,-0.8,1.9,2470.708,13.28,0.03,111.4
2022-03-08T04:10:03,42.805,6.029,0.014,-0.001,-0.015,103.0,102.0,101.0,13.4,1505.2,325.7,-0.8,1.8,2470.721,13.28,0.014,94.1
2022-03-08T04:13:03,42.805,6.029,0.018,-0.004,0.017,103.0,103.0,102.0,13.4,1505.2,323.5,-0.8,1.8,2470.697,13.28,0.018,102.5
2022-03-08T04:16:03,42.805,6.029,0.041,-0.008,0.009,103.0,104.0,101.0,13.3,1505.2,326.4,-0.7,1.8,2470.72,13.28,0.041,101.0
2022-03-08T04:19:03,42.805,6.029,0.055,0.0,0.04,103.0,104.0,102.0,13.4,1505.2,329.0,-0.8,1.8,2470.711,13.28,0.055,90.0
2022-03-08T04:22:03,42.805,6.029,0.026,-0.02,-0.024,104.0,104.0,102.0,13.4,1505.2,332.0,-0.7,1.8,2470.739,13.28,0.032,127.6
2022-03-08T04:25:03,42.805,6.029,0.033,-0.005,0.019,102.0,104.0,102.0,13.3,1505.2,325.9,-0.8,1.8,2470.684,13.28,0.033,98.6
2022-03-08T04:28:03,42.805,6.029,0.038,-0.016,-0.005,105.0,103.0,101.0,13.4,1505.2,326.5,-0.7,1.8,2470.707,13.28,0.041,112.8
2022-03-08T04:31:03,42.805,6.029,0.028,-0.004,0.012,103.0,105.0,101.0,13.3,1505.2,328.2,-0.7,1.8,2470.729,13.28,0.028,98.1
2022-03-08T04:34:03,42.805,6.029,0.033,-0.023,0.0,103.0,103.0,102.0,13.4,1505.2,331.4,-0.7,1.8,2470.681,13.28,0.04,124.9
2022-03-08T04:37:03,42.805,6.029,0.047,0.003,0.01,105.0,105.0,101.0,13.4,1505.2,323.7,-0.8,1.8,2470.669,13.28,0.047,86.4
2022-03-08T04:40:03,42.805,6.029,0.032,-0.01,0.002,103.0,106.0,102.0,13.4,1505.2,326.4,-0.8,1.8,2470.676,13.28,0.033,107.4
2022-03-08T04:43:03,42.805,6.029,0.048,-0.012,-0.02,103.0,103.0,102.0,13.3,1505.2,325.8,-0.8,1.8,2470.686,13.28,0.049,104.0
2022-03-08T04:46:03,42.805,6.029,0.027,-0.022,0.005,103.0,104.0,101.0,13.3,1505.2,326.4,-0.7,1.8,2470.685,13.28,0.034,129.2
2022-03-08T04:49:03,42.805,6.029,0.051,0.006,0.003,104.0,104.0,102.0,13.4,1505.2,325.2,-0.7,1.8,2470.693,13.28,0.051,83.3
2022-03-08T04:52:03,42.805,6.029,0.056,-0.01,-0.008,103.0,103.0,102.0,13.4,1505.2,323.6,-0.7,1.8,2470.677,13.28,0.056,100.1
2022-03-08T04:55:03,42.805,6.029,0.035,-0.003,-0.013,104.0,103.0,101.0,13.4,1505.2,327.1,-0.7,1.8,2470.689,13.28,0.035,94.9
2022-03-08T04:58:03,42.805,6.029,0.036,0.0,-0.047,104.0,105.0,102.0,13.4,1505.2,323.0,-0.8,1.8,2470.69,13.28,0.036,90.0
2022-03-08T05:04:03,42.805,6.029,0.063,-0.034,0.0,103.0,105.0,102.0,13.4,1505.2,328.8,-0.7,1.8,2470.733,13.28,0.071,118.4
2022-03-08T05:07:03,42.805,6.029,0.039,-0.013,0.001,103.0,104.0,101.0,13.3,1505.2,330.3,-0.7,1.8,2470.695,13.28,0.041,108.4
2022-03-08T05:10:03,42.805,6.029,0.063,-0.019,-0.008,103.0,103.0,101.0,13.3,1505.2,331.6,-0.7,1.8,2470.676,13.28,0.065,106.8
2022-03-08T05:13:03,42.805,6.029,0.058,-0.009,0.001,102.0,103.0,102.0,13.3,1505.2,322.8,-0.8,1.8,2470.688,13.28,0.058,98.8
2022-03-08T05:16:03,42.805,6.029,0.048,-0.02,-0.009,103.0,104.0,102.0,13.4,1505.2,325.4,-0.7,1.8,2470.714,13.28,0.052,112.6
2022-03-08T05:19:03,42.805,6.029,0.014,-0.005,-0.006,102.0,105.0,101.0,13.4,1505.2,325.4,-0.7,1.8,2470.687,13.28,0.014,109.6
2022-03-08T05:22:03,42.805,6.029,0.034,0.0,0.02,102.0,104.0,102.0,13.3,1505.2,324.9,-0.8,1.8,2470.694,13.28,0.034,90.0
2022-03-08T05:25:03,42.805,6.029,0.02,-0.006,-0.009,102.0,104.0,102.0,13.4,1505.2,326.4,-0.8,1.8,2470.7,13.28,0.02,106.7
2022-03-08T05:28:03,42.805,6.029,0.048,-0.011,0.007,104.0,102.0,101.0,13.4,1505.2,329.7,-0.8,1.8,2470.682,13.28,0.049,102.9
2022-03-08T05:31:03,42.805,6.029,0.019,0.0,-0.009,104.0,104.0,101.0,13.4,1505.2,325.1,-0.8,1.8,2470.691,13.28,0.019,90.0
2022-03-08T05:34:03,42.805,6.029,0.04,0.021,0.021,103.0,104.0,102.0,13.4,1505.2,324.3,-0.8,1.8,2470.699,13.28,0.045,62.3
2022-03-08T05:37:03,42.805,6.029,0.009,-0.027,-0.038,103.0,103.0,101.0,13.4,1505.2,330.9,-0.8,1.8,2470.687,13.28,0.028,161.6
2022-03-08T05:40:03,42.805,6.029,0.049,-0.033,-0.004,103.0,103.0,102.0,13.4,1505.2,331.1,-0.8,1.8,2470.685,13.28,0.059,124.0
2022-03-08T05:43:03,42.805,6.029,0.025,-0.018,0.004,102.0,105.0,102.0,13.4,1505.2,326.7,-0.8,1.8,2470.704,13.28,0.03,125.8
2022-03-08T05:46:03,42.805,6.029,0.038,-0.024,0.005,104.0,103.0,102.0,13.4,1505.2,328.2,-0.7,1.8,2470.682,13.28,0.044,122.3
2022-03-08T05:49:03,42.805,6.029,0.03,-0.004,0.015,102.0,105.0,102.0,13.4,1505.2,326.0,-0.7,1.8,2470.719,13.28,0.03,97.6
2022-03-08T05:52:03,42.805,6.029,0.035,-0.004,0.011,101.0,104.0,102.0,13.4,1505.2,326.5,-0.8,1.8,2470.701,13.28,0.035,96.5
2022-03-08T05:55:03,42.805,6.029,0.058,-0.009,0.029,102.0,103.0,101.0,13.3,1505.2,329.0,-0.7,1.8,2470.672,13.28,0.058,98.8
2022-03-08T05:58:03,42.805,6.029,0.052,-0.023,-0.01,102.0,102.0,102.0,13.4,1505.2,328.3,-0.8,1.8,2470.687,13.28,0.056,113.9
2022-03-08T06:04:03,42.805,6.029,0.042,-0.01,-0.015,102.0,104.0,101.0,13.4,1505.2,327.6,-0.7,1.8,2470.73,13.28,0.043,103.4
2022-03-08T06:07:03,42.805,6.029,0.047,-0.014,0.002,102.0,104.0,101.0,13.4,1505.2,322.8,-0.8,1.8,2470.727,13.28,0.049,106.6
2022-03-08T06:10:03,42.805,6.029,0.062,0.005,-0.001,102.0,102.0,102.0,13.4,1505.2,323.4,-0.8,1.8,2470.665,13.28,0.062,85.4
2022-03-08T06:13:03,42.805,6.029,0.056,-0.021,0.003,103.0,104.0,101.0,13.4,1505.2,328.3,-0.8,1.8,2470.696,13.28,0.059,110.6
2022-03-08T06:16:03,42.805,6.029,0.067,-0.004,0.021,103.0,104.0,100.0,13.4,1505.2,327.6,-0.8,1.8,2470.689,13.28,0.067,93.4
2022-03-08T06:19:03,42.805,6.029,0.068,-0.004,0.001,103.0,104.0,101.0,13.4,1505.2,327.3,-0.8,1.8,2470.737,13.28,0.068,93.4
2022-03-08T06:22:03,42.805,6.029,0.052,-0.022,0.0,102.0,103.0,101.0,13.4,1505.2,329.3,-0.8,1.8,2470.673,13.28,0.056,112.9
2022-03-08T06:25:03,42.805,6.029,0.051,0.004,0.011,102.0,103.0,101.0,13.3,1505.2,327.9,-0.8,1.8,2470.718,13.28,0.051,85.5
2022-03-08T06:28:03,42.805,6.029,0.052,-0.011,0.015,102.0,104.0,101.0,13.4,1505.2,328.6,-0.8,1.8,2470.691,13.28,0.053,101.9
2022-03-08T06:31:03,42.805,6.029,0.05,-0.013,0.015,103.0,105.0,101.0,13.4,1505.2,327.2,-0.7,1.8,2470.703,13.28,0.051,104.6
2022-03-08T06:34:03,42.805,6.029,0.038,0.001,-0.009,105.0,103.0,101.0,13.3,1505.2,329.4,-0.7,1.8,2470.678,13.28,0.038,88.5
2022-03-08T06:37:03,42.805,6.029,0.05,-0.017,-0.018,103.0,105.0,101.0,13.4,1505.2,324.0,-0.7,1.8,2470.683,13.28,0.052,108.8
2022-03-08T06:40:03,42.805,6.029,0.048,-0.017,-0.014,103.0,103.0,101.0,13.4,1505.2,325.0,-0.8,1.8,2470.717,13.28,0.05,109.5
2022-03-08T06:43:03,42.805,6.029,0.054,-0.031,0.0,104.0,103.0,101.0,13.4,1505.2,328.5,-0.7,1.8,2470.674,13.28,0.062,119.9
2022-03-08T06:46:03,42.805,6.029,0.036,-0.021,-0.006,102.0,103.0,101.0,13.4,1505.2,326.6,-0.8,1.8,2470.693,13.28,0.041,120.3
2022-03-08T06:49:03,42.805,6.029,0.073,-0.023,0.023,103.0,105.0,101.0,13.4,1505.2,324.9,-0.8,1.9,2470.722,13.28,0.076,107.5
2022-03-08T06:52:03,42.805,6.029,0.061,-0.02,0.008,102.0,103.0,102.0,13.3,1505.2,331.8,-0.8,1.8,2470.733,13.28,0.064,108.1
2022-03-08T06:55:03,42.805,6.029,0.042,0.004,-0.009,102.0,103.0,101.0,13.3,1505.2,329.6,-0.8,1.8,2470.715,13.28,0.042,84.6
2022-03-08T06:58:03,42.805,6.029,0.045,-0.017,-0.008,103.0,106.0,101.0,13.4,1505.2,330.0,-0.8,1.8,2470.723,13.28,0.048,110.7
2022-03-08T07:04:03,42.805,6.029,0.055,-0.02,0.006,104.0,105.0,101.0,13.4,1505.2,328.9,-0.7,1.8,2470.747,13.28,0.058,110.0
2022-03-08T07:07:03,42.805,6.029,0.05,-0.032,-0.001,104.0,104.0,102.0,13.4,1505.2,327.8,-0.8,1.8,2470.727,13.28,0.059,122.6
2022-03-08T07:10:03,42.805,6.029,0.039,-0.015,-0.038,103.0,105.0,102.0,13.4,1505.2,326.4,-0.8,1.8,2470.698,13.28,0.041,111.0
2022-03-08T07:13:03,42.805,6.029,0.023,-0.013,-0.002,103.0,102.0,102.0,13.4,1505.2,326.8,-0.8,1.8,2470.718,13.28,0.026,119.5
2022-03-08T07:16:03,42.805,6.029,0.055,-0.034,-0.024,103.0,104.0,101.0,13.4,1505.2,330.3,-0.7,1.8,2470.718,13.28,0.064,121.7
2022-03-08T07:19:03,42.805,6.029,0.048,-0.026,-0.007,103.0,103.0,102.0,13.3,1505.2,327.0,-0.8,1.8,2470.709,13.28,0.054,118.4
2022-03-08T07:22:03,42.805,6.029,0.067,-0.01,0.019,104.0,103.0,102.0,13.4,1505.2,325.1,-0.8,1.8,2470.721,13.28,0.067,98.5
2022-03-08T07:25:03,42.805,6.029,0.033,-0.002,0.0,103.0,103.0,101.0,13.4,1505.2,329.3,-0.7,1.8,2470.688,13.28,0.033,93.5
2022-03-08T07:28:03,42.805,6.029,0.051,-0.02,-0.014,103.0,104.0,101.0,13.4,1505.2,326.1,-0.8,1.9,2470.721,13.28,0.054,111.4
2022-03-08T07:31:03,42.805,6.029,0.037,-0.021,-0.004,104.0,104.0,101.0,13.4,1505.2,323.1,-0.8,1.8,2470.763,13.28,0.042,119.6
2022-03-08T07:34:03,42.805,6.029,0.06,-0.019,0.017,103.0,103.0,101.0,13.4,1505.2,325.8,-0.8,1.8,2470.742,13.28,0.062,107.6
2022-03-08T07:37:03,42.805,6.029,0.06,-0.03,-0.003,103.0,105.0,101.0,13.3,1505.2,331.8,-0.7,1.8,2470.715,13.28,0.067,116.6
2022-03-08T07:40:03,42.805,6.029,0.05,-0.032,0.005,103.0,103.0,101.0,13.4,1505.2,324.7,-0.8,1.8,2470.757,13.28,0.059,122.6
2022-03-08T07:43:03,42.805,6.029,0.034,-0.021,0.003,102.0,104.0,101.0,13.3,1505.2,325.3,-0.7,1.8,2470.754,13.28,0.039,121.7
2022-03-08T07:46:03,42.805,6.029,0.062,-0.035,-0.004,104.0,103.0,101.0,13.4,1505.2,326.3,-0.8,1.8,2470.744,13.28,0.071,119.4
2022-03-08T07:49:03,42.805,6.029,0.067,-0.015,-0.001,103.0,104.0,101.0,13.4,1505.2,326.7,-0.8,1.8,2470.724,13.28,0.068,102.6
2022-03-08T07:52:03,42.805,6.029,0.049,0.0,-0.017,103.0,105.0,101.0,13.4,1505.2,325.7,-0.8,1.8,2470.73,13.28,0.049,90.0
2022-03-08T07:55:03,42.805,6.029,0.023,-0.001,-0.012,103.0,104.0,102.0,13.3,1505.2,328.5,-0.7,1.8,2470.744,13.28,0.023,92.5
2022-03-08T07:58:03,42.805,6.029,0.027,-0.004,-0.013,102.0,103.0,101.0,13.3,1505.2,328.3,-0.8,1.8,2470.731,13.28,0.027,98.4
2022-03-08T08:04:03,42.805,6.029,0.057,0.003,-0.003,102.0,104.0,101.0,13.4,1505.2,325.5,-0.8,1.8,2470.733,13.28,0.057,87.0
2022-03-08T08:07:03,42.805,6.029,0.042,-0.023,0.012,103.0,104.0,101.0,13.4,1505.2,324.4,-0.8,1.8,2470.761,13.28,0.047,118.7
2022-03-08T08:10:03,42.805,6.029,0.031,0.007,0.045,103.0,104.0,102.0,13.4,1505.2,324.2,-0.8,1.8,2470.789,13.28,0.031,77.3
2022-03-08T08:13:03,42.805,6.029,0.082,-0.002,0.021,104.0,104.0,101.0,13.3,1505.2,324.2,-0.8,1.8,2470.791,13.28,0.082,91.4
2022-03-08T08:16:03,42.805,6.029,0.062,-0.024,0.006,103.0,103.0,101.0,13.3,1505.2,330.0,-0.8,1.8,2470.767,13.28,0.066,111.2
2022-03-08T08:19:03,42.805,6.029,0.053,-0.015,-0.004,103.0,104.0,102.0,13.4,1505.2,327.2,-0.7,1.8,2470.727,13.28,0.055,105.8
2022-03-08T08:22:03,42.805,6.029,0.043,-0.038,-0.005,103.0,103.0,102.0,13.4,1505.2,329.9,-0.8,1.8,2470.743,13.28,0.057,131.5
2022-03-08T08:25:03,42.805,6.029,0.04,-0.017,0.0,103.0,103.0,101.0,13.4,1505.2,329.2,-0.7,1.8,2470.776,13.28,0.043,113.0
2022-03-08T08:28:03,42.805,6.029,0.041,-0.002,0.001,103.0,104.0,101.0,13.4,1505.2,329.9,-0.7,1.8,2470.757,13.28,0.041,92.8
2022-03-08T08:31:03,42.805,6.029,0.029,-0.028,-0.031,103.0,103.0,101.0,13.4,1505.2,323.7,-0.8,1.8,2470.751,13.28,0.04,134.0
2022-03-08T08:34:03,42.805,6.029,0.03,-0.013,-0.014,103.0,104.0,102.0,13.4,1505.2,326.1,-0.7,1.8,2470.778,13.28,0.032,113.4
2022-03-08T08:37:03,42.805,6.029,0.04,-0.009,0.004,103.0,104.0,102.0,13.4,1505.2,328.9,-0.7,1.8,2470.78,13.28,0.041,102.7
2022-03-08T08:40:03,42.805,6.029,0.027,-0.027,0.003,103.0,103.0,102.0,13.3,1505.2,332.4,-0.7,1.8,2470.729,13.28,0.038,135.0
2022-03-08T08:43:03,42.805,6.029,0.014,-0.023,-0.032,103.0,104.0,102.0,13.4,1505.2,330.0,-0.8,1.8,2470.785,13.28,0.026,148.7
2022-03-08T08:46:03,42.805,6.029,0.073,-0.016,-0.003,103.0,103.0,101.0,13.3,1505.2,325.3,-0.7,1.8,2470.778,13.28,0.074,102.4
2022-03-08T08:49:03,42.805,6.029,0.058,-0.026,0.016,103.0,102.0,102.0,13.4,1505.2,325.1,-0.7,1.8,2470.794,13.28,0.063,114.1
2022-03-08T08:52:03,42.805,6.029,0.046,-0.012,-0.018,103.0,104.0,101.0,13.4,1505.2,331.7,-0.7,1.8,2470.767,13.28,0.047,104.6
2022-03-08T08:55:03,42.805,6.029,0.046,-0.022,-0.003,103.0,104.0,102.0,13.3,1505.2,329.2,-0.8,1.8,2470.795,13.28,0.05,115.6
2022-03-08T08:58:03,42.805,6.029,0.037,-0.021,-0.003,103.0,104.0,101.0,13.3,1505.2,325.2,-0.8,1.8,2470.805,13.28,0.042,119.6
2022-03-08T09:04:03,42.805,6.029,0.038,-0.009,0.003,102.0,104.0,101.0,13.3,1505.2,331.8,-0.8,1.8,2470.841,13.28,0.039,103.3
2022-03-08T09:07:03,42.805,6.029,0.038,-0.041,-0.015,103.0,103.0,101.0,13.4,1505.2,329.1,-0.7,1.8,2470.828,13.28,0.055,137.2
2022-03-08T09:10:03,42.805,6.029,0.052,-0.033,-0.011,103.0,104.0,101.0,13.4,1505.2,331.6,-0.8,1.8,2470.805,13.28,0.061,122.4
2022-03-08T09:13:03,42.805,6.029,0.05,-0.027,0.029,102.0,103.0,102.0,13.4,1505.2,327.9,-0.8,1.8,2470.795,13.28,0.056,118.4
2022-03-08T09:16:03,42.805,6.029,0.047,-0.004,-0.015,104.0,103.0,103.0,13.4,1505.2,325.4,-0.8,1.8,2470.781,13.28,0.047,94.9
2022-03-08T09:19:03,42.805,6.029,0.035,-0.014,0.012,105.0,104.0,101.0,13.4,1505.2,329.0,-0.7,1.8,2470.818,13.28,0.037,111.8
2022-03-08T09:22:03,42.805,6.029,0.062,-0.026,0.008,103.0,103.0,102.0,13.4,1505.2,324.7,-0.7,1.8,2470.824,13.28,0.067,112.7
2022-03-08T09:25:03,42.805,6.029,0.056,-0.022,0.022,102.0,103.0,101.0,13.4,1505.2,326.9,-0.8,1.8,2470.819,13.28,0.06,111.4
2022-03-08T09:28:03,42.805,6.029,0.031,-0.009,0.001,102.0,103.0,102.0,13.4,1505.2,324.7,-0.8,1.8,2470.826,13.28,0.032,106.2
2022-03-08T09:31:03,42.805,6.029,0.05,-0.011,-0.002,103.0,103.0,102.0,13.4,1505.2,323.4,-0.8,1.8,2470.839,13.28,0.051,102.4
2022-03-08T09:34:03,42.805,6.029,0.061,-0.022,0.0,103.0,103.0,101.0,13.4,1505.2,331.0,-0.7,1.8,2470.845,13.28,0.064,109.8
2022-03-08T09:37:03,42.805,6.029,0.03,-0.023,-0.022,103.0,104.0,102.0,13.3,1505.2,329.3,-0.7,1.8,2470.843,13.28,0.037,127.5
2022-03-08T09:40:03,42.805,6.029,0.07,-0.027,-0.008,102.0,102.0,102.0,13.3,1505.2,331.6,-0.8,1.8,2470.802,13.28,0.075,111.1
2022-03-08T09:43:03,42.805,6.029,0.047,-0.023,0.019,104.0,105.0,101.0,13.4,1505.2,323.7,-0.7,1.8,2470.853,13.28,0.052,116.1
2022-03-08T09:46:03,42.805,6.029,0.051,-0.001,0.038,103.0,103.0,101.0,13.3,1505.2,328.9,-0.8,1.8,2470.805,13.28,0.051,91.1
2022-03-08T09:49:03,42.805,6.029,0.059,-0.037,-0.022,104.0,103.0,102.0,13.4,1505.2,325.2,-0.8,1.8,2470.838,13.28,0.069,122.1
2022-03-08T09:52:03,42.805,6.029,0.053,-0.035,-0.008,104.0,104.0,102.0,13.3,1505.2,331.8,-0.7,1.8,2470.799,13.28,0.063,123.4
2022-03-08T09:55:03,42.805,6.029,0.037,-0.012,-0.006,104.0,104.0,102.0,13.3,1505.2,329.3,-0.7,1.9,2470.816,13.28,0.038,108.0
2022-03-08T09:58:03,42.805,6.029,0.067,-0.014,-0.006,103.0,104.0,102.0,13.4,1505.2,325.0,-0.8,1.8,2470.824,13.28,0.068,101.8